Regional Weather Roundup
Issued by NWS

Home | Current Version | Previous Version | Graphics & Text | Print | Product List | Glossary On
Versions: 1 2 3 4 5 6 7 8 9 10 11 12 13 14 15 16 17 18 19 20 21 22 23 24 25 26 27 28 29 30 31 32 33 34 35 36 37 38 39 40 41 42 43 44 45 46 47 48 49 50
923
ASUS43 KLOT 280008
RWRIL

ILLINOIS REGIONAL WEATHER ROUNDUP
NATIONAL WEATHER SERVICE CHICAGO/ROMEOVILLE IL
700 PM CDT FRI MAY 27 2016

NOTE: "FAIR" INDICATES FEW OR NO CLOUDS BELOW 12,000 FEET WITH NO
SIGNIFICANT WEATHER AND/OR OBSTRUCTIONS TO VISIBILITY.

* THESE STATIONS ARE NOT UNDER NWS QUALITY CONTROL. THEY ALSO MAY NOT
  REPORT WEATHER SUCH AS PRECIPITATION OR FOG.

ILZ001-002-007-009-015-016-024-280100-
NORTHWEST ILLINOIS

CITY           SKY/WX    TMP DP  RH WIND       PRES   REMARKS
MOLINE         MOSUNNY   79  67  66 S10       29.74S HX  81
6HR MIN TEMP:  73; 6HR MAX TEMP:  80; 6HR PCP:  0.01;

STERLING*      PTSUNNY   78  68  71 S5        29.77S HX  80
SAVANNA*       MOSUNNY   77  68  74 S9        29.75S
$$

ILZ003-004-008-010-011-017-018-280100-
NORTH CENTRAL ILLINOIS

CITY           SKY/WX    TMP DP  RH WIND       PRES   REMARKS
ROCKFORD       MOSUNNY   78  65  63 S10       29.80F HX  80
6HR MIN TEMP:  70; 6HR MAX TEMP:  82; 6HR PCP:  0.07;

FREEPORT*      PTSUNNY   74  67  78 S12       29.79S
ROCHELLE*      PTSUNNY   77  68  73 S16       29.80S
DE KALB*       DRIZZLE   72  69  92 S17       29.82S
$$

ILZ005-006-012>014-019>023-280100-
NORTHEAST ILLINOIS

CITY           SKY/WX    TMP DP  RH WIND       PRES   REMARKS
CHICAGO-OHARE  CLOUDY    76  66  71 S10       29.82R
6HR MIN TEMP:  71; 6HR MAX TEMP:  81; 6HR PCP:  0.09;

CHICAGO-MIDWAY PTSUNNY   77  67  71 S9        29.83R
6HR MIN TEMP:  75; 6HR MAX TEMP:  84; 6HR PCP:  0.06;

AURORA         CLOUDY    75  68  78 S7        29.82S
6HR MIN TEMP:  74; 6HR MAX TEMP:  82; 6HR PCP:  0.06;

LANSING*       CLOUDY    75  70  83 S5        29.85S
JOLIET*        PTSUNNY   81  65  57 S8G17     29.83R HX  83
WAUKEGAN       CLOUDY    69  67  93 SE7       29.83S
6HR MIN TEMP:  66; 6HR MAX TEMP:  74; 6HR PCP:  0.29;

DUPAGE AIRPORT CLOUDY    73  68  84 S3        29.82S
6HR MIN TEMP:  71; 6HR MAX TEMP:  82; 6HR PCP:  0.29;

KANKAKEE*      PTSUNNY   78  67  69 S13G18    29.85S HX  80
WHEELING       CLOUDY    75  68  78 W7        29.84R
6HR MIN TEMP:  72; 6HR MAX TEMP:  82; 6HR PCP:  0.07;

MORRIS*        PTSUNNY   81  63  54 S15G21    29.81R HX  82
ROMEOVILLE*    PTSUNNY   81  61  50 S16G25    29.82S HX  82
NORTHERLY ISL    N/A     67  63  87 SE6         N/A
NORTHERLY ISL    N/A     67  63  87 SE6         N/A
$$

LMZ740>746-280100-
SOUTHERN LAKE MICHIGAN

STATION/POSITION SKY/WX   TEMP    WIND        PRES    VSBY  WAVE
                          AIR SEA DIR/SP/G                  HT/PER
                          (F)     (DEG/KT/KT) (MB)    (MI)  (FT/S)
SOUTHERN BUOY              59 51  160/ 10/ 12 1010.6F         0
WILMETTE HARBOR            62 56  170/ 10/ 12   N/A           1/ 2
HARRISON CRIB              70     160/ 14/ 16   N/A
BURNHAM HARBOR             67     160/  7/ 14   N/A
CALUMET HARBOR                    170/  8/ 15 1009.8F
BURNS HARBOR               75     160/  9/ 17 1011.5F
MICHIGAN CITY              72     120/ 13/ 16   N/A
MICHIGAN CITY 6N           67 59  170/  6/  8   N/A           1/ 2
ST. JOSEPH                 67 62  150/  8/ 10   N/A           2/ 3
$$

ILZ025>027-034>036-040-047-049-050-058-095>099-280100-
WEST-CENTRAL ILLINOIS

CITY           SKY/WX    TMP DP  RH WIND       PRES   REMARKS
QUINCY         PTSUNNY   76  69  79 SE15      29.74S
GALESBURG*     MOSUNNY   76  67  76 S8G16     29.76R
MACOMB*        PTSUNNY   75  69  79 SE15G21   29.77S
JACKSONVILLE*  HVY RAIN  76  69  79 S18G24    29.79R
PITTSFIELD*    CLOUDY    75  70  85 SE12      29.77S
$$

ILZ028>032-037-038-041>044-048-051>054-059>061-280100-
CENTRAL ILLINOIS

CITY           SKY/WX    TMP DP  RH WIND       PRES   REMARKS
PONTIAC        CLOUDY    80  68  67 S25       29.84R HX  82
BLOOMINGTON    CLOUDY    73  68  84 S26       29.85R
DECATUR        LGT RAIN  70  66  87 S14       29.86F
PEORIA         PTSUNNY   77  67  71 S15       29.78F
6HR MIN TEMP:  73; 6HR MAX TEMP:  80; 6HR PCP: TRACE;

LACON*         PTSUNNY   76  66  71 S7G20     29.78S
LINCOLN*       CLOUDY    75  69  80 S12G17    29.82R
SPRINGFIELD    PTSUNNY   76  68  76 S18       29.81S
6HR MIN TEMP:  76; 6HR MAX TEMP:  80;

TAYLORVILLE    CLOUDY    70  67  90 S14G21    29.83S
6HR MIN TEMP:  70; 6HR MAX TEMP:  76;

$$

ILZ033-039-045-046-055>057-062-063-280100-
EAST-CENTRAL ILLINOIS

CITY           SKY/WX    TMP DP  RH WIND       PRES   REMARKS
CHAMPAIGN      CLOUDY    72  69  90 S9        29.88R
RANTOUL*       LGT RAIN  72  70  93 S8        29.88R
MATTOON        LGT RAIN  72  64  76 S12G18    29.88R
PARIS*         RAIN      71  69  93 S13       29.92R
$$

ILZ079-100>102-280100-
SOUTHWEST ILLINOIS

CITY           SKY/WX    TMP DP  RH WIND       PRES   REMARKS
ALTON          PTSUNNY   72  68  88 S14       29.81F
BELLEVILLE     PTSUNNY   73  73 100 E7        29.81S
CAHOKIA*       PTSUNNY   74  69  85 S13G22    29.80S
SPARTA*        CLOUDY    70  67  91 S9G16     29.86S
$$

ILZ064>066-069>071-074>076-080>082-084>086-088>090-092>094-280100-
SOUTH-CENTRAL ILLINOIS

CITY           SKY/WX    TMP DP  RH WIND       PRES   REMARKS
CARBONDALE     CLOUDY    71  67  87 SE5       29.88R
6HR MIN TEMP:  69; 6HR MAX TEMP:  80; 6HR PCP:  0.34;

CAIRO*         CLOUDY    75  70  84 SE6       29.87S
EFFINGHAM*     RAIN      68  68  99 SE10      29.91R
MARION         CLOUDY    72  70  94 S6        29.90R
MT. VERNON     CLOUDY    70  64  83 S5        29.90R
CENTRALIA*     CLOUDY    70  69  96 S10       29.87S
SALEM*         LGT RAIN  71  68  90 S5        29.88S
METROPOLIS*    CLOUDY    78  69  73 CALM      29.90R HX  80
$$

ILZ067-068-072-073-078-083-087-091-280100-
SOUTHEAST ILLINOIS

CITY           SKY/WX    TMP DP  RH WIND       PRES   REMARKS
LAWRENCEVILLE  CLOUDY    82  63  52 S16       29.90R HX  83
FLORA*         LGT RAIN  69  67  93 SW9       29.89F
FAIRFIELD*     LGT RAIN  70  68  94 CALM      29.89S
HARRISBURG*    CLOUDY    74  69  83 SW6       29.90R
ROBINSON*      CLOUDY    75  68  79 CALM      29.90R
CARMI*         CLOUDY    77  69  77 S7        29.89S
$$

ABBREVIATIONS USED IN REMARKS
   TC - TEMPERATURE IN CELSIUS
  WCI - WIND CHILL INDEX
   HX - HEAT INDEX
  VSB - VISIBILITY
$$





USA.gov is the U.S. government's official web portal to all federal, state and local government web resources and services.